Regional Weather Roundup
Issued by NWS

Home | Current Version | Previous Version | Text Only | Print | Product List | Glossary On
Versions: 1 2 3 4 5 6 7 8 9 10 11 12 13 14 15 16 17 18 19 20 21 22 23 24 25 26 27 28 29 30 31 32 33 34 35 36 37 38 39 40 41 42 43 44 45 46 47 48 49 50
000
ASUS46 KPQR 171810
RWROR

OREGON REGIONAL WEATHER ROUNDUP
NATIONAL WEATHER SERVICE PORTLAND OR
1100 AM PDT THU AUG 17 2017

NOTE: "FAIR" INDICATES FEW OR NO CLOUDS BELOW 12,000 FEET WITH
NO SIGNIFICANT WEATHER AND/OR OBSTRUCTIONS TO VISIBILITY.

ORZ001>013-171900-
NORTHWEST OREGON


CITY           SKY/WX    TMP DP  RH WIND       PRES   REMARKS
ASTORIA        CLOUDY    62  52  69 N7        30.22S
6HR MIN TEMP:  60; 6HR MAX TEMP:  62;

NEWPORT        CLOUDY    63  54  72 N9        30.23S
PORTLAND       PTSUNNY   65  52  62 W6        30.20R
6HR MIN TEMP:  62; 6HR MAX TEMP:  65;

VANCOUVER WA   CLOUDY    66  54  65 NW6       30.19S
6HR MIN TEMP:  62; 6HR MAX TEMP:  66;

SCAPPOOSE      CLOUDY    67  53  61 N7        30.19R
6HR MIN TEMP:  56; 6HR MAX TEMP:  68;

HILLSBORO      CLOUDY    65  53  65 W6        30.20R
6HR MIN TEMP:  55; 6HR MAX TEMP:  66;

AURORA         CLOUDY    69  52  54 VRB5      30.20F
6HR MIN TEMP:  63; 6HR MAX TEMP:  69;

MCMINNVILLE    NOT AVBL
SALEM          CLOUDY    68  53  58 N8        30.18S
6HR MIN TEMP:  63; 6HR MAX TEMP:  69;

CORVALLIS      CLOUDY    70  55  60 CALM      30.20S
EUGENE         PTSUNNY   68  58  70 N10       30.19S
6HR MIN TEMP:  49; 6HR MAX TEMP:  71;

$$

ORZ021-028-171900-
SOUTHWEST OREGON


CITY           SKY/WX    TMP DP  RH WIND       PRES   REMARKS
NORTH BEND     MOSUNNY   66  57  72 N13       30.17S
6HR MIN TEMP:  55; 6HR MAX TEMP:  66;

BROOKINGS      SUNNY     89  56  32 SW5       30.03S
ROSEBURG       CLOUDY    72  54  53 CALM      30.15S HAZE
6HR MIN TEMP:  59; 6HR MAX TEMP:  74;

SEXTON SUMMIT  SUNNY     72  45  37 CALM      30.24R
6HR MIN TEMP:  62; 6HR MAX TEMP:  73;

GRANTS PASS    FAIR      79  50  36 CALM      30.16F
MEDFORD        SUNNY     76  49  38 CALM      30.13F
6HR MIN TEMP:  58; 6HR MAX TEMP:  76;

$$

ORZ014>016-041-171900-
COLUMBIA GORGE


CITY           SKY/WX    TMP DP  RH WIND       PRES   REMARKS
TROUTDALE      CLOUDY    67  53  61 NW6       30.19S
6HR MIN TEMP:  63; 6HR MAX TEMP:  68;

HOOD RIVER     SUNNY     70  52  52 NW14G22   30.10F
THE DALLES     SUNNY     76  54  46 NW20G30   30.06F
6HR MIN TEMP:  67; 6HR MAX TEMP:  76;

$$

ORZ029>031-041-044-049-050-061>064-502-503-505>511-171900-
EASTERN OREGON


CITY           SKY/WX    TMP DP  RH WIND       PRES   REMARKS
MADRAS         SUNNY     75  39  27 CALM      30.16F
REDMOND        SUNNY     78  34  20 VRB6      30.17S
6HR MIN TEMP:  48; 6HR MAX TEMP:  78;

BEND           SUNNY     77  36  22 VRB8G14   30.19F
PRINEVILLE     SUNNY     75  39  27 VRB5      30.19S
KLAMATH FALLS  SUNNY     74  47  38 CALM      30.22F
6HR MIN TEMP:  46; 6HR MAX TEMP:  75;

LAKEVIEW       SUNNY    N/A N/A N/A S9        30.25F
HERMISTON      SUNNY     78  53  41 W7        30.07S
6HR MIN TEMP:  65; 6HR MAX TEMP:  78;

PENDLETON      SUNNY     77  45  32 W14       30.09S
6HR MIN TEMP:  62; 6HR MAX TEMP:  78;

JOHN DAY       SUNNY     74  36  25 CALM      30.20S
MEACHAM        SUNNY     72  36  26 VRB5      30.18R
6HR MIN TEMP:  43; 6HR MAX TEMP:  72;

LA GRANDE      NOT AVBL
BAKER CITY     SUNNY     75  45  34 CALM      30.16S
6HR MIN TEMP:  49; 6HR MAX TEMP:  75;

BURNS          SUNNY     74  37  26 VRB5      30.21S
6HR MIN TEMP:  44; 6HR MAX TEMP:  74;

ROME             N/A     80  40  23 CALM      30.18S
6HR MIN TEMP:  52; 6HR MAX TEMP:  81;

ONTARIO        SUNNY     83  41  22 W7        30.10S
6HR MIN TEMP:  62; 6HR MAX TEMP:  84;

$$



USA.gov is the U.S. government's official web portal to all federal, state and local government web resources and services.